Location: Betzi
(47.2343°N, 9.5260°E)
Time: 23:54:23
(UTC+00:00)

Cosmos 614 Rocket - Pass Details

Date: 27 May 2022
Orbit: 732 x 764 km, 74.1° (Epoch: 26 June)

Event Time Altitude Azimuth Distance (km) Brightness Sun altitude
Rises 01:11:59 0° 338° (NNW) 3,216 7.8 -16.9°
Reaches altitude 10° 01:14:21 10° 340° (NNW) 2,292 7.1 -16.7°
Maximum altitude 01:19:34 76° 67° (ENE) 786 4.1 -16.3°
Drops below altitude 10° 01:24:46 10° 153° (SSE) 2,291 6.1 -15.9°
Enters shadow 01:25:35 - 154° (SSE) 2,608 6.4 -15.8°
